Location: Ida Center
(41.8662°N, 83.5713°W)
Time: 03:23:47
(UTC+00:00)

Cosmos 2263 Rocket - Pass Details

Date: 17 November 2019
Orbit: 825 x 847 km, 71.0° (Epoch: 11 December)

Event Time Altitude Azimuth Distance (km) Brightness Sun altitude
Rises 23:33:08 0° 346° (NNW) 3,373 5.4 -15.1°
Reaches altitude 10° 23:36:09 10° 2° (N) 2,435 4.5 -15.7°
Enters shadow 23:40:17 22° 50° (NE) 1,746 3.3 -16.4°
